Starlink 5994

operational
NORAD ID: 56457 Int'l Des: 2023-064 Owner: SPXS Country: US Constellation: starlink
LEOCIRCULAR

Starlink 5994について

説明を読み込み中...

リアルタイム位置

3D地球を読み込み中...

次回通過

高度履歴

Altitude vs Time

uPlot chart will show altitude changes over time

軌道要素

1 56457U 23064K 25303.89537573 .00000553 00000-0 54116-4 0 9996
2 56457 69.9987 111.7347 0002612 267.3168 92.7692 14.98324977135801
Epoch: Oct 30, 2025 • Age: 12 hours

現在のステータス

高度 589.4 km
速度 7.57 km/s
衛星直下点 -50.09°S, 129.92°E
打ち上げ日 May 10, 2023
運用期間 2.4 years
タイプ internet

技術仕様

分類 Payload
質量 305.00 kg
乾燥質量 290.00 kg
総質量 305.00 kg
長さ 0.20 m
直径 2.80 m
スパン 9.00 m
形状 Box + pan
製造者 SPXS
バスタイプ Starlink
フェーズステータス In Orbit
所有者/国 SPXS/US

大規模コンステレーション

Loading constellations...